Home > Weather > Knox > Past weeks

Flag for USA Past Weather in Knox, Indiana, USA — Yesterday and Last 2 Weeks

Now
68 °F

Fog.


Feels Like: 68 °F
Forecast: 65 / 81 °F
Wind: 8 mph from Southwest

Location: Porter County Municipal Airport

Current Time: May 26, 2016 at 7:49:21 AM

Latest Report: May 26, 2016 at 6:56 AM


Visibility: 5 mi

Pressure: 29.96 "Hg

Humidity: 90%

Dew Point: 65 °F

Location of KnoxLocation

Past Weather in Knox — Graph

°F

Knox Temperature Yesterday

Maximum temperature yesterday: 87 °F (at 3:56 PM)
Minimum temperature yesterday: 61 °F (at 5:56 AM)
Average temperature yesterday: 75 °F

High & Low Weather Summary for the Past Weeks

 TemperatureHumidityPressure
High87 °F (May 25, 3:56 PM)100% (May 11, 5:56 AM)30.25 "Hg (May 11, 5:56 AM)
Low36 °F (May 15, 4:56 AM)19% (May 23, 4:56 PM)29.75 "Hg (May 13, 10:56 PM)
Average59 °F61%30.06 "Hg
* Reported May 11 5:56 AM — May 26 5:56 AM, Knox, Weather by CustomWeather, © 2016

Note: Actual official high and low records may vary slightly from our data, if they occured in-between our weather recording intervals... More about our weather records

Advertising

Knox Weather History for the Previous 24 Hours

Scroll right to see more
 ConditionsComfort  
Time TempWeatherWind HumidityBarometerVisibility
5:56 AM
Thu, May 26
66 °FFog.8 mph93%29.95 "Hg4 mi
4:56 AM66 °FClear.8 mph90%29.92 "Hg8 mi
3:56 AM66 °FClear.5 mph90%29.93 "Hg10 mi
2:56 AM67 °FClear.6 mph87%29.94 "Hg10 mi
1:56 AM69 °FClear.6 mph79%29.95 "Hg10 mi
12:56 AM70 °FClear.7 mph76%29.95 "Hg10 mi
11:56 PM
Wed, May 25
72 °FPassing clouds.6 mph73%29.96 "Hg10 mi
10:56 PM74 °FPassing clouds.10 mph69%29.96 "Hg10 mi
9:56 PM69 °FClear.5 mph84%29.96 "Hg10 mi
8:56 PM77 °FOvercast.12 mph62%29.94 "Hg10 mi
7:56 PM79 °FOvercast.9 mph60%29.92 "Hg10 mi
6:56 PM80 °FSunny.9 mph60%29.90 "Hg10 mi
5:56 PM74 °FThundershowers. Cloudy.15 mph79%29.90 "Hg3 mi
4:56 PM86 °FPassing clouds.13 mph39%29.90 "Hg10 mi
3:56 PM87 °FSunny.15 mph37%29.91 "Hg10 mi
2:56 PM86 °FPassing clouds.13 mph39%29.94 "Hg10 mi
1:56 PM86 °FSunny.10 mph42%29.96 "Hg10 mi
12:56 PM84 °FSunny.12 mph45%29.99 "Hg10 mi
11:56 AM82 °FSunny.14 mph48%30.00 "Hg10 mi
10:56 AM80 °FPassing clouds.13 mph54%30.00 "Hg10 mi
9:56 AM77 °FPassing clouds.9 mph62%30.03 "Hg10 mi
8:56 AM75 °FSunny.10 mph64%30.04 "Hg10 mi
7:56 AM72 °FSunny.7 mph66%30.04 "Hg10 mi
Weather by CustomWeather, © 2016

See weather overviewHow to use our weather pages